Weather in Gornozavodsk

Russia / Perm Krai     58°22′28″N   58°19′51″E
temp.,
°C
wind,
m/s
gust,
m/s
humid.,
%
clouds,
%
prec.,
mm/h
press.,
hPa
HPBL,
m
28 september, tue
tue2823:00+2ene513735 0.0 1027896
02:00+1ene412825 0.0 1028555
05:00−1ne410935 0.0 1029368
08:000ene4129247 0.0 1029479
11:00+4ene586835 0.0 1028848
14:00+6ene4657100 0.0 10271275
17:00+6ne3556100 0.0 10271358
20:00+1ne277736 0.0 1028132
29 september, wed
wed2923:00−1ne22877 0.0 102819
02:00−2nne11918 0.0 102813
05:00−2nne11919 0.0 102912
08:00−1nne118624 0.0 102926
11:00+5nne12565 0.0 1028702
14:00+7nnw224682 0.0 10281476
17:00+7nw235261 0.0 1027661
20:00+1nw11805 0.0 102810
30 september, thu
thu3023:00−1nnw11915 0.0 102810
02:00−2wnw11935 0.0 102810
05:00−2w11965 0.0 102810
08:000w119599 0.0 102772
11:00+3wnw3588100 0.0 1026427
14:00+5wnw4686100 0.1 1024921
17:00+4wnw3798100 0.2 1024733
20:00+3wnw3898100 0.1 1023669
1 october, fri
fri123:00+4wnw3898100 0.1 1022535
02:00+4nw2899100 0.0 1022520
05:00+4nnw2599100 0.6 1024235
08:00+3n1198100 0.1 102516
11:00+5ene227991 0.2 1026624
14:00+6ne1077100 0.0 1027313
17:00+6w238295 0.1 1027505
20:00+4w1294100 0.0 102852
2 october, sat
sat223:00+4wsw1193100 0.0 102819
02:00+1w22955 0.0 102836
05:00−1w22948 0.0 102824
08:00−1wnw249139 0.0 1028102
11:00+5nw3667100 0.0 1028480
14:00+8nw465098 0.0 1028859
17:00+7nw365968 0.0 1029744
20:00+4wnw277592 0.0 1030271